Location: Observatoire
(46.1952°N, 5.3391°E)
Time: 07:53:04
(UTC+01:00)

Explorer 7 - Pass Details

Date: 20 February 2026
Orbit: 430 x 541 km, 50.2° (Epoch: 9 March)

Event Time Altitude Azimuth Distance (km) Brightness Sun altitude
Rises 14:58:14 0° 232° (SW) 2,403 11.3 26.4°
Reaches altitude 10° 15:00:20 10° 228° (SW) 1,549 10.8 26.2°
Maximum altitude 15:03:45 56° 150° (SSE) 542 7.4 25.9°
Drops below altitude 10° 15:07:18 10° 71° (ENE) 1,607 8.8 25.5°
Sets 15:09:31 0° 67° (ENE) 2,505 9.7 25.3°
